Hourly Data Report for September 02, 2018

TORONTO CITY
ONTARIO
Current Station Operator: ECCC - MSC

43°40'00.000" N
79°24'00.000" W
112.50 m
6158355
71508
XTO

Download Data

Hourly Data (September 2018)
Hourly Data Report for September 2, 2018
TIME
LST
Temp Definition
°C
Dew Point Definition
°C
Rel Hum Definition
%
Precip. Amount Definition
mm

Wind Dir Definition
10's deg

Wind Spd Definition
km/h
Visibility Definition
km
Stn Press Definition
kPa
Hmdx Definition


Wind Chill Definition


Weather Definition


00:00 23.3 19.3 78 0.0 LegendMM LegendMM   100.49 30   LegendNANA
01:00 22.9 19.5 81 0.0 LegendMM LegendMM   100.45 30   LegendNANA
02:00 23.2 19.5 80 0.0 LegendMM LegendMM   100.45 30   LegendNANA
03:00 23.3 19.8 81 0.0 LegendMM LegendMM   100.44 31   LegendNANA
04:00 22.9 19.9 83 0.0 LegendMM LegendMM   100.44 30   LegendNANA
05:00 22.7 19.8 84 0.0 LegendMM LegendMM   100.49 30   LegendNANA
06:00 22.5 19.8 85 0.0 LegendMM LegendMM   100.55 30   LegendNANA
07:00 23.4 20.3 83 0.0 LegendMM LegendMM   100.59 31   LegendNANA
08:00 24.1 20.4 80 0.0 LegendMM LegendMM   100.64 32   LegendNANA
09:00 24.7 20.7 79 0.0 LegendMM LegendMM   100.63 33   LegendNANA
10:00 25.3 20.2 73 0.0 LegendMM LegendMM   100.67 33   LegendNANA
11:00 26.3 20.8 72 0.0 LegendMM LegendMM   100.66 35   LegendNANA
12:00 25.2 21.2 78 0.0 LegendMM LegendMM   100.58 34   LegendNANA
13:00 25.3 20.4 74 0.0 LegendMM LegendMM   100.59 33   LegendNANA
14:00 26.1 20.2 70 0.0 LegendMM LegendMM   100.56 34   LegendNANA
15:00 27.1 20.1 66 0.0 LegendMM LegendMM   100.54 35   LegendNANA
16:00 27.6 20.3 64 0.0 LegendMM LegendMM   100.52 35   LegendNANA
17:00 27.0 20.3 66 0.0 LegendMM LegendMM   100.50 35   LegendNANA
18:00 26.4 19.9 67 0.0 LegendMM LegendMM   100.48 34   LegendNANA
19:00 25.0 19.8 73 0.0 LegendMM LegendMM   100.49 32   LegendNANA
20:00 24.6 19.6 74 0.0 LegendMM LegendMM   100.53 32   LegendNANA
21:00 24.3 19.6 75 0.0 LegendMM LegendMM   100.60 32   LegendNANA
22:00 24.0 20.1 79 0.0 LegendMM LegendMM   100.64 32   LegendNANA
23:00 24.0 20.2 80 0.0 LegendMM LegendMM   100.63 32   LegendNANA

Notes on Data Quality.

Legend

  • E = Estimated
  • M = Missing
  • NA = Not Available*
  • [empty] = Indicates an unobserved value
Date modified: